Flag for Germany Weather past 2 weeks in Sondershausen, Thuringia, Germany

Now
66 °F

Partly sunny.


Feels Like: 66 °F
Forecast: 50 / 61 °F
Wind: 9 mph from West

Location: Erfurt-Bindersleben

Current Time: Jul 28, 2015 at 5:29:01 PM

Latest Report: Jul 28, 2015 at 5:00 PM


Visibility: 37 mi

Pressure: 29.71 "Hg

Humidity: 42%

Dew point: 42 °F

Location of SondershausenLocation

Historic Weather in Sondershausen — Graph

°F

Sondershausen temperature yesterday

Maximum temperature yesterday: 65 °F (at 3:00 PM)
Minimum temperature yesterday: 54 °F (at 1:00 AM)
Average temperature yesterday: 60 °F

Past Weeks' High & Low Weather Summary

 TemperatureHumidityPressure
High91 °F (Jul 17, 6:00 PM)100% (Jul 19, 7:00 AM)30.12 "Hg (Jul 19, 7:00 AM)
Low51 °F (Jul 26, 7:00 AM)26% (Jul 17, 4:00 PM)29.60 "Hg (Jul 25, 6:00 AM)
Average68 °F70%29.90 "Hg
* Reported Jul 13 4:00 PM — Jul 28 4:00 PM, Sondershausen, Weather by CustomWeather, © 2015

Note: Actual official high and low records may vary slightly from our data, if they occured in-between our weather recording intervals... More about our weather records

Advertising

Sondershausen weather history for previous 24 hours

 ConditionsComfort  
Time TempWeatherWind HumidityBarometerVisibility
4:00 PM
Tue, Jul 28
68 °FPartly sunny.9 mph42%29.71 "Hg37 mi
3:00 PM65 °FOvercast.10 mph48%29.72 "Hg37 mi
2:00 PM63 °FOvercast.12 mph52%29.73 "Hg37 mi
1:00 PM62 °FOvercast.9 mph54%29.73 "Hg37 mi
12:00 PM61 °FOvercast.9 mph51%29.72 "Hg37 mi
11:00 AM60 °FPartly sunny.10 mph55%29.72 "Hg37 mi
10:00 AM58 °FPartly sunny.10 mph60%29.72 "Hg37 mi
9:00 AM58 °FScattered clouds.10 mph67%29.71 "Hg37 mi
8:00 AM55 °FScattered clouds.10 mph74%29.70 "Hg31 mi
7:00 AM55 °FPartly sunny.7 mph82%29.69 "Hg25 mi
6:00 AM55 °FOvercast.9 mph84%29.69 "Hg25 mi
5:00 AM55 °FPassing clouds.8 mph87%29.68 "Hg25 mi
4:00 AM56 °FOvercast.6 mph95%29.69 "Hg25 mi
3:00 AM57 °FSprinkles. Overcast.7 mph89%29.67 "Hg25 mi
2:00 AM57 °FPassing clouds.5 mph94%29.68 "Hg25 mi
1:00 AM58 °FRain showers. Overcast.5 mph92%29.70 "Hg25 mi
11:00 PM
Mon, Jul 27
61 °FOvercast.6 mph77%29.68 "Hg31 mi
10:00 PM61 °FPassing clouds.6 mph79%29.68 "Hg31 mi
9:00 PM62 °FOvercast.6 mph75%29.67 "Hg31 mi
8:00 PM63 °FPartly sunny.7 mph77%29.65 "Hg31 mi
7:00 PM65 °FPartly sunny.10 mph67%29.64 "Hg37 mi
6:00 PM63 °FSprinkles. Overcast.10 mph81%29.64 "Hg16 mi
5:00 PM64 °FOvercast.9 mph75%29.63 "Hg16 mi
Weather by CustomWeather, © 2015

See weather overviewHow to use our weather pages